Regional Weather Roundup
Issued by NWS State College, PA

Home | Current Version | Previous Version | Graphics & Text | Print | Product List | Glossary Off
Versions: 1 2 3 4 5 6 7 8 9 10 11 12 13 14 15 16 17 18 19 20 21 22 23 24 25 26 27 28 29 30 31 32 33 34 35 36 37 38 39 40 41 42 43 44 45 46 47 48 49 50

000
ASUS41 KCTP 230403
RWRCTP

REGIONAL WEATHER ROUNDUP
NATIONAL WEATHER SERVICE STATE COLLEGE PA
1100 PM EST WED FEB 22 2017

Note: "fair" indicates few or no clouds below 12,000 feet with no
significant weather and/or obstructions to visibility.

* = STATION THAT DOES NOT REPORT PRECIPITATION /E.G. RAIN...SNOW...ETC/
    THUNDER OR FOG.

PAZ002>004-007>009-013>016-020>023-029>032-230500-
WESTERN PENNSYLVANIA

CITY           SKY/WX    TMP DP  RH WIND       PRES   REMARKS
ERIE           CLOUDY    58  51  78 S13       29.78F
MEADVILLE      CLOUDY    55  50  83 SW7       29.81F
FRANKLIN*      CLOUDY    55  48  76 SW8       29.84F
NEW CASTLE     CLOUDY    56  51  84 SW6       29.84F
BEAVER COUNTY  NOT AVBL
BUTLER*        MOCLDY    57  48  72 SW7       29.86F
PITTSBURGH INT MOCLDY    58  52  80 SW7       29.85F
PITTSBURGH     CLOUDY    58  48  69 SW8       29.86S
INDIANA*       CLOUDY    55  48  76 CALM      29.89R
LATROBE        MOCLDY    57  50  77 SW8       29.88R
WASHINGTON CO* CLOUDY    57  48  72 SW8       29.89S
$$

PAZ004>006-010>012-017>019-024>028-033>037-041-042-045-046-049>053-230500-
CENTRAL PENNSYLVANIA

CITY           SKY/WX    TMP DP  RH WIND       PRES   REMARKS
BRADFORD       CLOUDY    48  48 100 SE3       29.83F FOG
DUBOIS         CLOUDY    54  43  66 SW5       29.84S
CLEARFIELD       N/A    N/A N/A N/A MISG      29.86S
JOHNSTOWN      CLOUDY    55  44  66 SW6       29.86S
ALTOONA        CLOUDY    53  44  71 CALM      29.87F
STATE COLLEGE  CLEAR     46  39  78 CALM      29.87S
WILLIAMSPORT   CLEAR     43  36  76 CALM      29.88S
SELINSGROVE    CLEAR     36  35  96 CALM      29.89S
FT INDIANTOWN  CLEAR     43  43 100 CALM      29.89F
CAPITAL CITY   CLEAR     49  40  71 CALM      29.89S
HARRISBURG     CLOUDY    46  41  82 CALM      29.89S
YORK           CLOUDY    43  41  93 S3        29.89F
$$

PAZ038>040-043-044-047-048-054-055-060>062-067>071-230500-
EASTERN PENNSYLVANIA

CITY           SKY/WX    TMP DP  RH WIND       PRES   REMARKS
SCRANTON       CLEAR     43  38  82 CALM      29.87S
MOUNT POCONO   CLEAR     39  36  89 W6        29.87F
ALLENTOWN      CLEAR     42  36  79 CALM      29.90S
QUAKERTOWN*    CLOUDY    41  37  87 CALM      29.91S
READING        CLOUDY    49  43  80 CALM      29.89F
LANCASTER      CLOUDY    46  43  89 NE3       29.90S
COATESVILLE    PTCLDY    50  45  81 VRB5      29.91F
POTTSTOWN      CLOUDY    45  40  82 CALM      29.91F
BLUE BELL      PTCLDY    41  39  93 CALM      29.90S
DOYLESTOWN     CLOUDY    45  40  82 CALM      29.89F
WILLOW GROVE   NOT AVBL
NORTH PHILA    PTCLDY    45  41  86 CALM      29.92F
PHILADELPHIA   MOCLDY    47  44  90 W6        29.92S
$$




USA.gov is the U.S. government's official web portal to all federal, state and local government web resources and services.